• En España
  • Lista de países
  • Para 7 días
  • Temperatura del agua
  • Mapa Satelital
  • El tiempo en el mapa
  • Informadores
  • user-avatar
    Iniciar sesión

    Tiempo cada hora Dublin

    Hoy, 22 Septiembre, Sábado

    Tiempo Temperatura Precipitaciones Viento Presión Humedad
    00:00 +4°C° 0 mm 4 mps 746 mmHg 95%
    01:00 +4°C° 0 mm 4 mps 746 mmHg 94%
    02:00 +4°C° 0 mm 4 mps 746 mmHg 94%
    03:00 +4°C° 0 mm 4 mps 746 mmHg 94%
    04:00 +4°C° 0 mm 3 mps 746 mmHg 94%
    05:00 +5°C° 0 mm 3 mps 746 mmHg 94%
    06:00 +5°C° 0 mm 3 mps 746 mmHg 93%
    07:00 +6°C° 0.1 mm 2 mps 746 mmHg 92%
    08:00 +7°C° 0.1 mm 2 mps 746 mmHg 91%
    09:00 +8°C° 0.1 mm 2 mps 746 mmHg 90%
    10:00 +10°C° 0.2 mm 1 mps 746 mmHg 88%
    11:00 +10°C° 0.2 mm 1 mps 746 mmHg 85%
    12:00 +11°C° 0.2 mm 1 mps 746 mmHg 83%
    13:00 +11°C° 0.1 mm 1 mps 746 mmHg 82%
    14:00 +12°C° 0.1 mm 2 mps 746 mmHg 81%
    15:00 +12°C° 0.1 mm 2 mps 745 mmHg 79%
    16:00 +10°C° 0 mm 2 mps 745 mmHg 82%
    17:00 +9°C° 0 mm 2 mps 745 mmHg 85%
    18:00 +9°C° 0 mm 2 mps 745 mmHg 88%
    19:00 +8°C° 0 mm 2 mps 746 mmHg 89%
    20:00 +7°C° 0 mm 2 mps 746 mmHg 90%
    21:00 +6°C° 0 mm 2 mps 746 mmHg 91%
    22:00 +6°C° 0 mm 2 mps 746 mmHg 91%
    23:00 +5°C° 0 mm 3 mps 747 mmHg 91%

    Mañana, 23 Septiembre, Domingo

    Tiempo Temperatura Precipitaciones Viento Presión Humedad
    00:00 +5°C° 0 mm 3 mps 747 mmHg 91%
    01:00 +5°C° 0 mm 3 mps 747 mmHg 91%
    02:00 +5°C° 0 mm 3 mps 747 mmHg 91%
    03:00 +5°C° 0 mm 4 mps 747 mmHg 91%
    04:00 +5°C° 0.2 mm 4 mps 747 mmHg 91%
    05:00 +5°C° 0.2 mm 4 mps 747 mmHg 90%
    06:00 +4°C° 0.2 mm 4 mps 748 mmHg 90%
    07:00 +5°C° 0.1 mm 5 mps 748 mmHg 87%
    08:00 +6°C° 0.1 mm 5 mps 749 mmHg 84%
    09:00 +7°C° 0.1 mm 6 mps 750 mmHg 82%
    10:00 +8°C° 0 mm 6 mps 750 mmHg 75%
    11:00 +9°C° 0 mm 6 mps 751 mmHg 68%
    12:00 +10°C° 0 mm 7 mps 751 mmHg 62%
    13:00 +10°C° 0 mm 7 mps 752 mmHg 62%
    14:00 +10°C° 0 mm 7 mps 752 mmHg 63%
    15:00 +11°C° 0 mm 6 mps 753 mmHg 63%
    16:00 +9°C° 0 mm 6 mps 754 mmHg 68%
    17:00 +8°C° 0 mm 6 mps 755 mmHg 73%
    18:00 +7°C° 0 mm 6 mps 755 mmHg 78%
    19:00 +5°C° 0 mm 6 mps 756 mmHg 81%
    20:00 +5°C° 0 mm 5 mps 757 mmHg 85%
    21:00 +3°C° 0 mm 5 mps 758 mmHg 88%
    22:00 +2°C° 0 mm 5 mps 759 mmHg 90%
    23:00 +2°C° 0 mm 5 mps 759 mmHg 91%

    Pasado mañana, 24 Septiembre, Lunes

    Tiempo Temperatura Precipitaciones Viento Presión Humedad
    00:00 +1°C° 0 mm 4 mps 760 mmHg 92%
    01:00 +1°C° 0 mm 4 mps 760 mmHg 93%
    02:00 +1°C° 0 mm 4 mps 760 mmHg 93%
    03:00 0°C° 0 mm 4 mps 761 mmHg 93%
    04:00 +1°C° 0 mm 3 mps 761 mmHg 93%
    05:00 +2°C° 0 mm 3 mps 761 mmHg 93%
    06:00 +2°C° 0 mm 3 mps 761 mmHg 93%
    07:00 +3°C° 0 mm 3 mps 762 mmHg 89%
    08:00 +5°C° 0 mm 3 mps 762 mmHg 86%
    09:00 +8°C° 0 mm 3 mps 763 mmHg 82%
    10:00 +9°C° 0 mm 3 mps 763 mmHg 78%
    11:00 +10°C° 0 mm 3 mps 763 mmHg 73%
    12:00 +13°C° 0 mm 2 mps 763 mmHg 68%
    13:00 +13°C° 0 mm 2 mps 763 mmHg 66%
    14:00 +13°C° 0 mm 2 mps 763 mmHg 65%
    15:00 +14°C° 0 mm 1 mps 763 mmHg 64%
    16:00 +12°C° 0 mm 1 mps 763 mmHg 69%
    17:00 +11°C° 0 mm 1 mps 762 mmHg 75%
    18:00 +10°C° 0 mm 1 mps 762 mmHg 80%
    19:00 +8°C° 0 mm 2 mps 762 mmHg 83%
    20:00 +7°C° 0 mm 2 mps 763 mmHg 86%
    21:00 +6°C° 0 mm 2 mps 763 mmHg 89%
    22:00 +5°C° 0 mm 2 mps 763 mmHg 90%
    23:00 +5°C° 0 mm 2 mps 762 mmHg 92%

    25 Septiembre, Martes

    Tiempo Temperatura Precipitaciones Viento Presión Humedad
    00:00 +5°C° 0 mm 2 mps 762 mmHg 93%
    01:00 +5°C° 0 mm 2 mps 762 mmHg 93%
    02:00 +3°C° 0 mm 3 mps 762 mmHg 93%
    03:00 +3°C° 0 mm 3 mps 761 mmHg 94%
    04:00 +3°C° 0 mm 3 mps 761 mmHg 93%
    05:00 +3°C° 0 mm 3 mps 761 mmHg 93%
    06:00 +3°C° 0 mm 4 mps 760 mmHg 92%
    07:00 +5°C° 0 mm 5 mps 760 mmHg 88%
    08:00 +7°C° 0 mm 5 mps 760 mmHg 85%
    09:00 +9°C° 0 mm 6 mps 760 mmHg 81%
    10:00 +10°C° 0 mm 7 mps 760 mmHg 78%
    11:00 +11°C° 0 mm 7 mps 759 mmHg 74%
    12:00 +12°C° 0 mm 8 mps 759 mmHg 71%
    13:00 +13°C° 0 mm 8 mps 758 mmHg 72%
    14:00 +13°C° 0 mm 8 mps 758 mmHg 73%
    15:00 +13°C° 0 mm 8 mps 757 mmHg 74%
    16:00 +12°C° 0 mm 8 mps 757 mmHg 77%
    17:00 +11°C° 0 mm 7 mps 757 mmHg 80%
    18:00 +10°C° 0 mm 7 mps 756 mmHg 83%
    19:00 +10°C° 0 mm 7 mps 756 mmHg 85%
    20:00 +9°C° 0 mm 7 mps 756 mmHg 87%
    21:00 +9°C° 0 mm 8 mps 756 mmHg 88%
    22:00 +9°C° 0 mm 8 mps 756 mmHg 89%
    23:00 +9°C° 0 mm 8 mps 756 mmHg 89%

    26 Septiembre, Miércoles

    Tiempo Temperatura Precipitaciones Viento Presión Humedad
    00:00 +9°C° 0 mm 8 mps 755 mmHg 89%
    01:00 +9°C° 0 mm 8 mps 755 mmHg 90%
    02:00 +9°C° 0 mm 7 mps 755 mmHg 90%
    03:00 +9°C° 0 mm 7 mps 754 mmHg 91%
    04:00 +9°C° 0 mm 7 mps 754 mmHg 91%
    05:00 +9°C° 0 mm 7 mps 754 mmHg 91%
    06:00 +9°C° 0 mm 7 mps 754 mmHg 91%
    07:00 +10°C° 0 mm 7 mps 754 mmHg 89%
    08:00 +11°C° 0 mm 7 mps 754 mmHg 88%
    09:00 +13°C° 0 mm 6 mps 754 mmHg 86%
    10:00 +14°C° 0.1 mm 6 mps 754 mmHg 86%
    11:00 +15°C° 0.1 mm 6 mps 754 mmHg 86%
    12:00 +15°C° 0.1 mm 6 mps 754 mmHg 86%
    13:00 +16°C° 0 mm 6 mps 754 mmHg 86%
    14:00 +17°C° 0 mm 6 mps 754 mmHg 86%
    15:00 +17°C° 0 mm 5 mps 753 mmHg 86%
    16:00 +17°C° 0 mm 5 mps 753 mmHg 87%
    17:00 +16°C° 0 mm 5 mps 753 mmHg 89%
    18:00 +16°C° 0 mm 5 mps 753 mmHg 91%
    19:00 +15°C° 0 mm 5 mps 753 mmHg 92%
    20:00 +14°C° 0 mm 5 mps 753 mmHg 94%
    21:00 +13°C° 0 mm 5 mps 753 mmHg 95%
    22:00 +13°C° 0 mm 5 mps 753 mmHg 95%
    23:00 +13°C° 0 mm 6 mps 753 mmHg 95%

    27 Septiembre, Jueves

    Tiempo Temperatura Precipitaciones Viento Presión Humedad
    00:00 +11°C° 0 mm 6 mps 753 mmHg 94%
    01:00 +11°C° 0 mm 6 mps 753 mmHg 94%
    02:00 +11°C° 0 mm 6 mps 752 mmHg 94%
    03:00 +11°C° 0 mm 6 mps 752 mmHg 94%
    04:00 +13°C° 0 mm 6 mps 752 mmHg 95%
    05:00 +13°C° 0 mm 6 mps 752 mmHg 95%
    06:00 +13°C° 0 mm 6 mps 753 mmHg 95%
    07:00 +11°C° 0.1 mm 6 mps 753 mmHg 94%
    08:00 +10°C° 0.1 mm 6 mps 754 mmHg 93%
    09:00 +9°C° 0.1 mm 6 mps 754 mmHg 92%
    10:00 +10°C° 0 mm 5 mps 755 mmHg 88%
    11:00 +12°C° 0 mm 5 mps 755 mmHg 84%
    12:00 +12°C° 0 mm 5 mps 756 mmHg 80%
    13:00 +13°C° 0 mm 5 mps 756 mmHg 77%
    14:00 +13°C° 0 mm 4 mps 756 mmHg 74%
    15:00 +13°C° 0 mm 4 mps 756 mmHg 71%
    16:00 +12°C° 0 mm 4 mps 756 mmHg 75%
    17:00 +11°C° 0 mm 4 mps 757 mmHg 79%
    18:00 +10°C° 0 mm 4 mps 757 mmHg 82%
    19:00 +9°C° 0 mm 3 mps 757 mmHg 83%
    20:00 +8°C° 0 mm 3 mps 758 mmHg 85%
    21:00 +7°C° 0 mm 3 mps 758 mmHg 86%
    22:00 +5°C° 0 mm 3 mps 758 mmHg 87%
    23:00 +5°C° 0 mm 3 mps 758 mmHg 89%
    Mostrar más